{"data":{"norad_id":55662,"epoch":"2026-09-20T22:00:03.000096Z","epoch_age_seconds":67072,"freshness":"FRESH","line1":"1 55662U 23021AL  26263.91670139  .00005613  00000+0  37677-3 0  9994","line2":"2 55662  69.9982  32.5579 0002759 256.7305 317.9952 15.07364857  5761","mean_motion":15.07364857,"eccentricity":0.0002759,"inclination_deg":69.9982,"raan_deg":32.5579,"arg_perigee_deg":256.7305,"mean_anomaly_deg":317.9952,"bstar":0.00037677,"rev_number":576,"period_min":95.530952132314,"perigee_km":542.34609946511,"apogee_km":546.16587591572,"semimajor_km":6922.3929876904,"source":"CELESTRAK","updated_at":"2026-09-21T09:00:33.308214Z"}}